Time,TemperatureF,DewpointF,PressureIn,WindDirection,WindDirectionDegrees,WindSpeedMPH,WindSpeedGustMPH,Humidity,HourlyPrecipIn,Conditions,Clouds,dailyrainin,SoftwareType,DateUTC
2015-05-22 00:05:00,55.9,53.0,30.00,ESE,110,0.0,0.0,89,0.00,,,0.00,weatherlink.com 1.10,2015-05-22 07:05:00,
2015-05-22 00:20:00,55.8,53.0,30.00,ESE,110,0.0,0.0,90,0.00,,,0.00,weatherlink.com 1.10,2015-05-22 07:20:00,
2015-05-22 00:35:00,55.7,53.0,30.00,ESE,110,0.0,0.0,90,0.00,,,0.00,weatherlink.com 1.10,2015-05-22 07:35:00,
2015-05-22 00:50:00,55.5,53.0,30.00,ESE,110,0.0,1.0,91,0.00,,,0.00,weatherlink.com 1.10,2015-05-22 07:50:00,
2015-05-22 01:11:00,55.4,53.0,30.00,ESE,110,0.0,0.0,92,0.00,,,0.00,weatherlink.com 1.10,2015-05-22 08:11:00,
2015-05-22 01:20:00,55.3,53.0,30.00,ESE,110,0.0,0.0,93,0.00,,,0.00,weatherlink.com 1.10,2015-05-22 08:20:00,
2015-05-22 01:35:00,55.1,53.0,30.00,ESE,110,0.0,0.0,93,0.00,,,0.00,weatherlink.com 1.10,2015-05-22 08:35:00,
2015-05-22 01:50:00,54.9,53.0,30.00,ESE,110,0.0,0.0,94,0.00,,,0.00,weatherlink.com 1.10,2015-05-22 08:50:00,
2015-05-22 02:05:00,54.8,53.0,30.00,ESE,110,0.0,0.0,94,0.00,,,0.00,weatherlink.com 1.10,2015-05-22 09:05:00,
2015-05-22 02:20:00,54.6,53.0,30.00,East,88,0.0,2.0,94,0.00,,,0.00,weatherlink.com 1.10,2015-05-22 09:20:00,
2015-05-22 02:36:00,54.5,53.0,30.00,East,88,0.0,0.0,95,0.00,,,0.00,weatherlink.com 1.10,2015-05-22 09:36:00,
2015-05-22 02:50:00,54.4,53.0,30.01,East,88,0.0,0.0,94,0.00,,,0.00,weatherlink.com 1.10,2015-05-22 09:50:00,
2015-05-22 03:05:00,54.3,53.0,30.00,East,88,0.0,1.0,94,0.00,,,0.00,weatherlink.com 1.10,2015-05-22 10:05:00,
2015-05-22 03:20:00,54.2,53.0,30.00,ENE,77,0.0,2.0,95,0.00,,,0.00,weatherlink.com 1.10,2015-05-22 10:20:00,
2015-05-22 03:35:00,54.0,52.0,30.00,East,90,0.0,1.0,94,0.00,,,0.00,weatherlink.com 1.10,2015-05-22 10:35:00,
2015-05-22 03:50:00,54.0,52.0,30.00,East,90,0.0,0.0,94,0.00,,,0.00,weatherlink.com 1.10,2015-05-22 10:50:00,
2015-05-22 04:05:00,54.1,53.0,30.01,East,90,0.0,0.0,94,0.00,,,0.00,weatherlink.com 1.10,2015-05-22 11:05:00,
2015-05-22 04:20:00,54.0,53.0,30.01,East,90,0.0,0.0,95,0.00,,,0.00,weatherlink.com 1.10,2015-05-22 11:20:00,
2015-05-22 04:36:00,53.9,53.0,30.01,East,90,0.0,0.0,95,0.00,,,0.00,weatherlink.com 1.10,2015-05-22 11:36:00,
2015-05-22 04:50:00,53.9,53.0,30.01,East,90,0.0,0.0,95,0.00,,,0.00,weatherlink.com 1.10,2015-05-22 11:50:00,
2015-05-22 05:05:00,53.8,52.0,30.02,East,90,0.0,0.0,95,0.00,,,0.00,weatherlink.com 1.10,2015-05-22 12:05:00,
2015-05-22 05:21:00,53.7,53.0,30.02,East,90,0.0,0.0,96,0.00,,,0.00,weatherlink.com 1.10,2015-05-22 12:21:00,
2015-05-22 05:35:00,53.6,53.0,30.02,East,90,0.0,0.0,96,0.00,,,0.00,weatherlink.com 1.10,2015-05-22 12:35:00,
2015-05-22 05:50:00,53.5,52.0,30.02,East,90,0.0,0.0,96,0.00,,,0.00,weatherlink.com 1.10,2015-05-22 12:50:00,
2015-05-22 06:05:00,53.5,52.0,30.02,East,90,0.0,0.0,96,0.00,,,0.00,weatherlink.com 1.10,2015-05-22 13:05:00,
2015-05-22 06:20:00,53.5,52.0,30.02,East,90,0.0,0.0,96,0.00,,,0.00,weatherlink.com 1.10,2015-05-22 13:20:00,
2015-05-22 06:35:00,53.6,53.0,30.03,East,90,0.0,0.0,96,0.00,,,0.00,weatherlink.com 1.10,2015-05-22 13:35:00,
2015-05-22 06:50:00,53.7,53.0,30.03,East,90,0.0,1.0,97,0.00,,,0.00,weatherlink.com 1.10,2015-05-22 13:50:00,
2015-05-22 07:05:00,53.9,53.0,30.03,East,90,0.0,0.0,96,0.00,,,0.00,weatherlink.com 1.10,2015-05-22 14:05:00,
2015-05-22 07:20:00,54.0,53.0,30.04,NE,48,0.0,0.0,95,0.00,,,0.00,weatherlink.com 1.10,2015-05-22 14:20:00,
2015-05-22 07:35:00,54.5,53.0,30.04,NE,47,0.0,1.0,95,0.00,,,0.00,weatherlink.com 1.10,2015-05-22 14:35:00,
2015-05-22 07:50:00,54.7,53.0,30.04,NNW,332,0.0,2.0,93,0.00,,,0.00,weatherlink.com 1.10,2015-05-22 14:50:00,
2015-05-22 08:05:00,54.9,53.0,30.04,NE,44,0.0,2.0,93,0.00,,,0.00,weatherlink.com 1.10,2015-05-22 15:05:00,
2015-05-22 08:21:00,55.7,54.0,30.04,NE,36,0.0,5.0,92,0.00,,,0.00,weatherlink.com 1.10,2015-05-22 15:21:00,
2015-05-22 08:36:00,56.4,53.0,30.04,NW,324,3.0,4.0,89,0.00,,,0.00,weatherlink.com 1.10,2015-05-22 15:36:00,
2015-05-22 08:51:00,57.1,54.0,30.04,NE,34,0.0,3.0,89,0.00,,,0.00,weatherlink.com 1.10,2015-05-22 15:51:00,
2015-05-22 09:06:00,57.5,54.0,30.04,NNE,13,0.0,6.0,88,0.00,,,0.00,weatherlink.com 1.10,2015-05-22 16:06:00,
2015-05-22 09:21:00,58.2,54.0,30.04,NNE,24,3.0,5.0,86,0.00,,,0.00,weatherlink.com 1.10,2015-05-22 16:21:00,
2015-05-22 09:36:00,58.5,53.0,30.04,NE,39,0.0,6.0,82,0.00,,,0.00,weatherlink.com 1.10,2015-05-22 16:36:00,
2015-05-22 09:51:00,58.3,53.0,30.04,North,350,0.0,5.0,83,0.00,,,0.00,weatherlink.com 1.10,2015-05-22 16:51:00,
2015-05-22 10:06:00,58.9,54.0,30.04,NNW,327,1.0,5.0,83,0.00,,,0.00,weatherlink.com 1.10,2015-05-22 17:06:00,
2015-05-22 10:21:00,59.0,53.0,30.04,NNW,348,0.0,4.0,81,0.00,,,0.00,weatherlink.com 1.10,2015-05-22 17:21:00,
2015-05-22 10:36:00,59.6,54.0,30.04,NNE,31,0.0,5.0,81,0.00,,,0.00,weatherlink.com 1.10,2015-05-22 17:36:00,
2015-05-22 10:51:00,59.9,54.0,30.04,NNE,17,1.0,4.0,81,0.00,,,0.00,weatherlink.com 1.10,2015-05-22 17:51:00,
2015-05-22 11:06:00,60.0,54.0,30.05,NW,304,0.0,4.0,80,0.00,,,0.00,weatherlink.com 1.10,2015-05-22 18:06:00,
2015-05-22 11:21:00,60.5,55.0,30.05,NE,44,2.0,4.0,81,0.00,,,0.00,weatherlink.com 1.10,2015-05-22 18:21:00,
2015-05-22 11:36:00,60.9,55.0,30.05,NE,55,0.0,4.0,81,0.00,,,0.00,weatherlink.com 1.10,2015-05-22 18:36:00,
2015-05-22 11:51:00,60.7,55.0,30.05,WNW,290,2.0,3.0,81,0.00,,,0.00,weatherlink.com 1.10,2015-05-22 18:51:00,
2015-05-22 12:06:00,61.8,56.0,30.05,NW,325,2.0,2.0,80,0.00,,,0.00,weatherlink.com 1.10,2015-05-22 19:06:00,
2015-05-22 12:21:00,61.7,56.0,30.04,WSW,258,1.0,2.0,80,0.00,,,0.00,weatherlink.com 1.10,2015-05-22 19:21:00,
2015-05-22 12:36:00,62.3,55.0,30.04,WSW,250,0.0,3.0,77,0.00,,,0.00,weatherlink.com 1.10,2015-05-22 19:36:00,
2015-05-22 12:51:00,63.0,56.0,30.04,NNW,341,0.0,2.0,77,0.00,,,0.00,weatherlink.com 1.10,2015-05-22 19:51:00,